Regional Weather Roundup
Issued by NWS

Home | Current Version | Previous Version | Graphics & Text | Print | Product List | Glossary Off
Versions: 1 2 3 4 5 6 7 8 9 10 11 12 13 14 15 16 17 18 19 20 21 22 23 24 25 26 27 28 29 30 31 32 33 34 35 36 37 38 39 40 41 42 43 44 45 46 47 48 49 50

000
ASUS43 KLSX 260957
RWRMO

WEATHER SUMMARY FOR MISSOURI
NATIONAL WEATHER SERVICE SPRINGFIELD MO
500 AM CDT THU MAY 26 2016

NOTE: "FAIR" INDICATES FEW OR NO CLOUDS BELOW 12,000 FEET WITH NO
       SIGNIFICANT WEATHER AND/OR OBSTRUCTIONS TO VISIBILITY.
       CURRENT SKY AND/OR WEATHER CONDITIONS ARE NOT AVAILABLE FOR
       CHILLICOTHE AND FARMINGTON.

MOZ001>031-035>038-043-044-053-054-261100-
...NORTHERN AND WESTERN MISSOURI...

CITY           SKY/WX    TMP DP  RH WIND       PRES   REMARKS
KANSAS CTY INT TSTM      64  61  90 S20       29.87F
KANSAS C DTWN  TSTM      66  63  88 VRB3      29.93R
LEE`S SUMMIT   CLOUDY    67  60  78 N7        29.92R
ST JOSEPH      CLOUDY    67  62  84 S8        29.87R
CHILLICOTHE      N/A     74  55  51 VRB5      29.89R

$$
MOZ066>068-077>081-088>096-101>105-261100-
...SOUTHWEST MISSOURI...

CITY           SKY/WX    TMP DP  RH WIND       PRES   REMARKS
SPRINGFIELD    CLOUDY    71  69  93 S10       29.93S
JOPLIN         CLOUDY    75  71  87 S15       29.89F

$$
MOZ032>034-039>042-045>050-055>058-069>072-261100-
...CENTRAL MISSOURI...

CITY           SKY/WX    TMP DP  RH WIND       PRES   REMARKS
COLUMBIA       TSTM      70  61  73 NW21G37   29.94R
JEFFERSON CITY CLOUDY    73  70  90 S5        29.89F
ROLLA          CLOUDY    72  69  90 S10       29.92F
SEDALIA        TSTM      65  62  90 E7        29.94F
WARRENSBURG    CLOUDY    63  61  94 SE8       29.88F

$$
MOZ051-052-059>065-261100-
...EAST CENTRAL MISSOURI...

CITY           SKY/WX    TMP DP  RH WIND       PRES   REMARKS
ST LOUIS INTL  MOCLDY    72  67  84 S8        29.92F

$$
MOZ072>076-082>087-097>100-106>115-261100-
...SOUTH CENTRAL AND SOUTHEAST MISSOURI...

CITY           SKY/WX    TMP DP  RH WIND       PRES   REMARKS
CAPE GIRARDEAU PTCLDY    66  63  90 S5        30.00F
POPLAR BLUFF   PTCLDY    67  65  93 CALM      29.98S
WEST PLAINS    CLOUDY    72  69  90 S7        29.98F FOG

$$


USA.gov is the U.S. government's official web portal to all federal, state and local government web resources and services.